When you browse on this site, cookies collect data to enhance your experience and personalize the content and advertising you see.
Visit our Privacy Policy to learn more. By continuing to use the site, you agree to this use of cookies and data.
  • în România
  • Lista ţărilor
  • Pe 7 zile
  • Temperatura apei
  • Meteo pe hartă
  • Widget-uri
  • user-avatar
    Intrare

    Meteo pe oră la Paro

    Astăzi, 20 Septembrie, Vineri

    Timp Temperatura Precipitaţii Vânt Presiune Umiditate
    00:00 +13°C° 0 mm 1 m/s 563 mmHg 89%
    01:00 +13°C° 0 mm 1 m/s 563 mmHg 88%
    02:00 +13°C° 0 mm 1 m/s 562 mmHg 88%
    03:00 +13°C° 0 mm 1 m/s 562 mmHg 87%
    04:00 +13°C° 0 mm 1 m/s 562 mmHg 87%
    05:00 +13°C° 0 mm 1 m/s 562 mmHg 87%
    06:00 +13°C° 0 mm 1 m/s 562 mmHg 87%
    07:00 +15°C° 0 mm 1 m/s 564 mmHg 80%
    08:00 +19°C° 0 mm 1 m/s 565 mmHg 72%
    09:00 +21°C° 0 mm 1 m/s 567 mmHg 65%
    10:00 +20°C° 0.3 mm 2 m/s 566 mmHg 67%
    11:00 +21°C° 0.3 mm 2 m/s 566 mmHg 70%
    12:00 +21°C° 0.3 mm 2 m/s 566 mmHg 72%
    13:00 +20°C° 0.7 mm 2 m/s 565 mmHg 77%
    14:00 +19°C° 0.7 mm 2 m/s 564 mmHg 82%
    15:00 +18°C° 0.7 mm 2 m/s 563 mmHg 87%
    16:00 +18°C° 0.3 mm 1 m/s 562 mmHg 90%
    17:00 +16°C° 0.3 mm 1 m/s 562 mmHg 94%
    18:00 +15°C° 0.3 mm 1 m/s 561 mmHg 97%
    19:00 +15°C° 0.1 mm 1 m/s 561 mmHg 96%
    20:00 +14°C° 0.1 mm 1 m/s 562 mmHg 95%
    21:00 +14°C° 0.1 mm 1 m/s 562 mmHg 95%
    22:00 +14°C° 0 mm 1 m/s 562 mmHg 94%
    23:00 +14°C° 0 mm 1 m/s 562 mmHg 94%

    Mâine, 21 Septembrie, Sâmbătă

    Timp Temperatura Precipitaţii Vânt Presiune Umiditate
    00:00 +13°C° 0 mm 1 m/s 562 mmHg 93%
    01:00 +13°C° 0 mm 1 m/s 561 mmHg 92%
    02:00 +13°C° 0 mm 1 m/s 561 mmHg 92%
    03:00 +12°C° 0 mm 1 m/s 561 mmHg 91%
    04:00 +12°C° 0 mm 1 m/s 561 mmHg 91%
    05:00 +12°C° 0 mm 1 m/s 561 mmHg 91%
    06:00 +12°C° 0 mm 1 m/s 561 mmHg 90%
    07:00 +15°C° 0 mm 1 m/s 562 mmHg 83%
    08:00 +18°C° 0 mm 1 m/s 564 mmHg 76%
    09:00 +21°C° 0 mm 1 m/s 565 mmHg 68%
    10:00 +21°C° 0.3 mm 1 m/s 565 mmHg 69%
    11:00 +21°C° 0.3 mm 2 m/s 565 mmHg 70%
    12:00 +21°C° 0.3 mm 2 m/s 565 mmHg 71%
    13:00 +20°C° 0.6 mm 2 m/s 564 mmHg 74%
    14:00 +20°C° 0.6 mm 2 m/s 563 mmHg 78%
    15:00 +19°C° 0.6 mm 2 m/s 563 mmHg 81%
    16:00 +18°C° 0.2 mm 2 m/s 562 mmHg 86%
    17:00 +18°C° 0.2 mm 1 m/s 562 mmHg 91%
    18:00 +16°C° 0.2 mm 1 m/s 561 mmHg 96%
    19:00 +15°C° 0.1 mm 1 m/s 561 mmHg 95%
    20:00 +15°C° 0.1 mm 1 m/s 562 mmHg 95%
    21:00 +13°C° 0.1 mm 0 m/s 562 mmHg 95%
    22:00 +13°C° 0 mm 0 m/s 562 mmHg 94%
    23:00 +13°C° 0 mm 0 m/s 562 mmHg 94%

    Poimâine, 22 Septembrie, Duminică

    Timp Temperatura Precipitaţii Vânt Presiune Umiditate
    00:00 +14°C° 0 mm 1 m/s 562 mmHg 94%
    01:00 +13°C° 0 mm 1 m/s 562 mmHg 93%
    02:00 +13°C° 0 mm 1 m/s 562 mmHg 92%
    03:00 +13°C° 0 mm 1 m/s 561 mmHg 91%
    04:00 +13°C° 0 mm 1 m/s 562 mmHg 91%
    05:00 +13°C° 0 mm 1 m/s 562 mmHg 91%
    06:00 +12°C° 0 mm 1 m/s 562 mmHg 90%
    07:00 +15°C° 0.1 mm 1 m/s 563 mmHg 84%
    08:00 +18°C° 0.1 mm 1 m/s 565 mmHg 77%
    09:00 +20°C° 0.1 mm 1 m/s 566 mmHg 70%
    10:00 +20°C° 0.4 mm 2 m/s 566 mmHg 71%
    11:00 +20°C° 0.4 mm 2 m/s 566 mmHg 71%
    12:00 +20°C° 0.4 mm 2 m/s 566 mmHg 72%
    13:00 +19°C° 0.6 mm 2 m/s 565 mmHg 77%
    14:00 +18°C° 0.6 mm 2 m/s 564 mmHg 83%
    15:00 +17°C° 0.6 mm 2 m/s 563 mmHg 88%
    16:00 +18°C° 0.2 mm 1 m/s 562 mmHg 91%
    17:00 +16°C° 0.2 mm 1 m/s 562 mmHg 93%
    18:00 +14°C° 0.2 mm 0 m/s 562 mmHg 96%
    19:00 +14°C° 0 mm 0 m/s 562 mmHg 95%
    20:00 +13°C° 0 mm 0 m/s 562 mmHg 95%
    21:00 +13°C° 0 mm 0 m/s 563 mmHg 94%
    22:00 +13°C° 0 mm 0 m/s 563 mmHg 94%
    23:00 +13°C° 0 mm 0 m/s 563 mmHg 93%

    23 Septembrie, Luni

    Timp Temperatura Precipitaţii Vânt Presiune Umiditate
    00:00 +13°C° 0 mm 0 m/s 563 mmHg 92%
    01:00 +13°C° 0.1 mm 0 m/s 563 mmHg 92%
    02:00 +13°C° 0.1 mm 0 m/s 562 mmHg 92%
    03:00 +13°C° 0.1 mm 0 m/s 562 mmHg 92%
    04:00 +12°C° 0 mm 0 m/s 562 mmHg 92%
    05:00 +12°C° 0 mm 0 m/s 562 mmHg 92%
    06:00 +12°C° 0 mm 1 m/s 562 mmHg 92%
    07:00 +15°C° 0 mm 1 m/s 564 mmHg 87%
    08:00 +18°C° 0 mm 1 m/s 565 mmHg 81%
    09:00 +20°C° 0 mm 1 m/s 566 mmHg 75%
    10:00 +19°C° 0.3 mm 2 m/s 566 mmHg 75%
    11:00 +20°C° 0.3 mm 2 m/s 566 mmHg 76%
    12:00 +20°C° 0.3 mm 2 m/s 565 mmHg 76%
    13:00 +20°C° 0.4 mm 2 m/s 565 mmHg 78%
    14:00 +19°C° 0.4 mm 2 m/s 564 mmHg 80%
    15:00 +19°C° 0.4 mm 2 m/s 563 mmHg 83%
    16:00 +18°C° 0.2 mm 2 m/s 563 mmHg 87%
    17:00 +18°C° 0.2 mm 1 m/s 563 mmHg 92%
    18:00 +16°C° 0.2 mm 1 m/s 563 mmHg 96%
    19:00 +15°C° 0.1 mm 1 m/s 563 mmHg 96%
    20:00 +15°C° 0.1 mm 1 m/s 563 mmHg 96%
    21:00 +14°C° 0.1 mm 0 m/s 564 mmHg 96%
    22:00 +13°C° 0.2 mm 0 m/s 564 mmHg 95%
    23:00 +13°C° 0.2 mm 0 m/s 564 mmHg 95%

    24 Septembrie, Marţi

    Timp Temperatura Precipitaţii Vânt Presiune Umiditate
    00:00 +13°C° 0.2 mm 0 m/s 563 mmHg 95%
    01:00 +13°C° 0.1 mm 0 m/s 563 mmHg 94%
    02:00 +12°C° 0.1 mm 0 m/s 563 mmHg 94%
    03:00 +12°C° 0.1 mm 0 m/s 562 mmHg 94%
    04:00 +12°C° 0 mm 0 m/s 562 mmHg 93%
    05:00 +13°C° 0 mm 1 m/s 562 mmHg 93%
    06:00 +12°C° 0 mm 1 m/s 563 mmHg 92%
    07:00 +15°C° 0 mm 1 m/s 564 mmHg 84%
    08:00 +18°C° 0 mm 1 m/s 566 mmHg 76%
    09:00 +21°C° 0 mm 1 m/s 567 mmHg 68%
    10:00 +20°C° 0.1 mm 2 m/s 567 mmHg 67%
    11:00 +21°C° 0.1 mm 2 m/s 567 mmHg 66%
    12:00 +23°C° 0.1 mm 2 m/s 567 mmHg 65%
    13:00 +21°C° 0.5 mm 2 m/s 566 mmHg 71%
    14:00 +20°C° 0.5 mm 2 m/s 565 mmHg 76%
    15:00 +19°C° 0.5 mm 2 m/s 564 mmHg 82%
    16:00 +18°C° 0.3 mm 2 m/s 564 mmHg 87%
    17:00 +18°C° 0.3 mm 1 m/s 564 mmHg 92%
    18:00 +16°C° 0.3 mm 1 m/s 563 mmHg 97%
    19:00 +16°C° 0.1 mm 1 m/s 564 mmHg 97%
    20:00 +15°C° 0.1 mm 0 m/s 565 mmHg 97%
    21:00 +15°C° 0.1 mm 0 m/s 566 mmHg 97%
    22:00 +14°C° 0 mm 0 m/s 565 mmHg 96%
    23:00 +14°C° 0 mm 0 m/s 565 mmHg 95%

    25 Septembrie, Miercuri

    Timp Temperatura Precipitaţii Vânt Presiune Umiditate
    00:00 +14°C° 0 mm 0 m/s 565 mmHg 94%
    01:00 +14°C° 0 mm 0 m/s 565 mmHg 94%
    02:00 +13°C° 0 mm 0 m/s 565 mmHg 93%
    03:00 +13°C° 0 mm 0 m/s 564 mmHg 92%
    04:00 +13°C° 0 mm 0 m/s 564 mmHg 91%
    05:00 +12°C° 0 mm 0 m/s 564 mmHg 90%
    06:00 +12°C° 0 mm 0 m/s 564 mmHg 88%
    07:00 +15°C° 0 mm 1 m/s 566 mmHg 82%
    08:00 +18°C° 0 mm 1 m/s 567 mmHg 75%
    09:00 +21°C° 0 mm 1 m/s 569 mmHg 69%
    10:00 +20°C° 0.1 mm 2 m/s 569 mmHg 67%
    11:00 +21°C° 0.1 mm 2 m/s 569 mmHg 65%
    12:00 +23°C° 0.1 mm 2 m/s 569 mmHg 64%
    13:00 +21°C° 0.3 mm 2 m/s 568 mmHg 69%
    14:00 +20°C° 0.3 mm 2 m/s 567 mmHg 75%
    15:00 +19°C° 0.3 mm 2 m/s 566 mmHg 81%
    16:00 +18°C° 0.4 mm 2 m/s 565 mmHg 86%
    17:00 +18°C° 0.4 mm 1 m/s 565 mmHg 91%
    18:00 +15°C° 0.4 mm 1 m/s 564 mmHg 96%
    19:00 +15°C° 0.2 mm 1 m/s 565 mmHg 95%
    20:00 +15°C° 0.2 mm 1 m/s 565 mmHg 94%
    21:00 +13°C° 0.2 mm 0 m/s 566 mmHg 94%
    22:00 +13°C° 0 mm 0 m/s 566 mmHg 93%
    23:00 +13°C° 0 mm 0 m/s 565 mmHg 93%
    Arată mai mult